Location: Brookfield Center
(41.2406°N, 80.5579°W)
Time: 06:32:25
(UTC+00:00)

Meteor 2-15 Rocket - Pass Details

Date: 18 January 2020
Orbit: 939 x 956 km, 82.5° (Epoch: 23 February)

Event Time Altitude Azimuth Distance (km) Brightness Sun altitude
Rises 10:19:00 0° 196° (SSW) 3,607 7.4 -27.0°
Enters shadow 10:20:33 - 198° (SSW) 3,023 6.9 -26.7°
Exits shadow 10:26:48 58° 247° (WSW) 1,104 4.4 -25.5°
Maximum altitude 10:27:33 63° 280° (W) 1,063 4.3 -25.4°
Drops below altitude 10° 10:33:39 10° 2° (N) 2,693 6.7 -24.2°
Sets 10:36:12 0° 5° (N) 3,644 7.5 -23.8°
